This is the latest recevied weather packets stored in our database for station/object EA5JMY-10. If no packets are shown the sender has not sent any weather packets the latest 10 day(s).
| Time | Temp. | Humidity | Pressure | Rain* | Wind** | Luminosity | Snow |
|---|---|---|---|---|---|---|---|
| 1787910840 | 28.33° C | 30% | 1020.9 hPa | - | - | - | - |
| 1787909940 | 27.78° C | 30% | 1021.4 hPa | - | - | - | - |
| 1787909040 | 27.22° C | 32% | 1021.2 hPa | - | - | - | - |
| 1787908140 | 27.78° C | 32% | 1021.1 hPa | - | - | - | - |
| 1787907239 | 27.78° C | 32% | 1020.7 hPa | - | - | - | - |
| 1787906339 | 27.22° C | 32% | 1020.8 hPa | - | - | - | - |
| 1787905439 | 27.78° C | 31% | 1020.6 hPa | - | - | - | - |
| 1787904539 | 28.33° C | 30% | 1020.5 hPa | - | - | - | - |
| 1787903638 | 27.22° C | 32% | 1020 hPa | - | - | - | - |
| 1787902738 | 26.67° C | 34% | 1019.8 hPa | - | - | - | - |
| 1787901838 | 26.67° C | 33% | 1020 hPa | - | - | - | - |
| 1787900938 | 26.11° C | 34% | 1020.2 hPa | - | - | - | - |
| 1787900038 | 26.11° C | 34% | 1020.2 hPa | - | - | - | - |
| 1787899138 | 26.67° C | 33% | 1020.1 hPa | - | - | - | - |
| 1787898238 | 26.67° C | 32% | 1019.9 hPa | - | - | - | - |
| 1787897337 | 26.11° C | 33% | 1019.1 hPa | - | - | - | - |
| 1787896437 | 26.11° C | 33% | 1018.8 hPa | - | - | - | - |
| 1787895537 | 25.56° C | 34% | 1018.6 hPa | - | - | - | - |
| 1787894637 | 26.11° C | 33% | 1018.3 hPa | - | - | - | - |
| 1787893737 | 25.56° C | 33% | 1018.4 hPa | - | - | - | - |
| 1787892837 | 26.11° C | 31% | 1018.1 hPa | - | - | - | - |
| 1787891937 | 26.11° C | 31% | 1017.9 hPa | - | - | - | - |
| 1787891037 | 26.11° C | 31% | 1017.3 hPa | - | - | - | - |
| 1787890137 | 26.11° C | 30% | 1017.5 hPa | - | - | - | - |
| 1787889236 | 26.67° C | 29% | 1017.5 hPa | - | - | - | - |
* Rain since midnight (hover to see other rain measurements)
** Current wind speed in m/s (hover to see current wind gust speed)